EN

Hourly Weather Lafayette

Today, 5 August, Thursday

Time Temperature Precipitation Wind Pressure Humidity
00:00 +20°C° 0 mm 2 mps 633 mmHg 42%
01:00 +20°C° 0 mm 2 mps 633 mmHg 43%
02:00 +19°C° 0 mm 2 mps 633 mmHg 45%
03:00 +19°C° 0 mm 2 mps 633 mmHg 46%
04:00 +19°C° 0 mm 2 mps 633 mmHg 47%
05:00 +18°C° 0 mm 2 mps 633 mmHg 48%
06:00 +21°C° 0 mm 2 mps 633 mmHg 42%
07:00 +24°C° 0 mm 1 mps 634 mmHg 36%
08:00 +27°C° 0 mm 1 mps 634 mmHg 30%
09:00 +28°C° 0 mm 1 mps 635 mmHg 27%
10:00 +30°C° 0 mm 2 mps 635 mmHg 23%
11:00 +32°C° 0 mm 2 mps 635 mmHg 20%
12:00 +34°C° 0 mm 2 mps 635 mmHg 18%
13:00 +35°C° 0 mm 3 mps 634 mmHg 17%
14:00 +36°C° 0 mm 3 mps 634 mmHg 15%
15:00 +35°C° 0 mm 3 mps 633 mmHg 16%
16:00 +35°C° 0 mm 4 mps 633 mmHg 17%
17:00 +34°C° 0 mm 4 mps 632 mmHg 18%
18:00 +30°C° 0 mm 4 mps 632 mmHg 24%
19:00 +28°C° 0 mm 3 mps 631 mmHg 29%
20:00 +25°C° 0 mm 3 mps 631 mmHg 35%
21:00 +24°C° 0 mm 3 mps 630 mmHg 36%
22:00 +24°C° 0 mm 3 mps 630 mmHg 37%
23:00 +23°C° 0 mm 2 mps 630 mmHg 37%

Tomorrow, 6 August, Friday

Time Temperature Precipitation Wind Pressure Humidity
00:00 +22°C° 0 mm 3 mps 629 mmHg 37%
01:00 +21°C° 0 mm 3 mps 629 mmHg 37%
02:00 +21°C° 0 mm 3 mps 629 mmHg 36%
03:00 +21°C° 0 mm 3 mps 629 mmHg 35%
04:00 +21°C° 0 mm 3 mps 629 mmHg 34%
05:00 +21°C° 0 mm 3 mps 629 mmHg 32%
06:00 +25°C° 0 mm 3 mps 629 mmHg 28%
07:00 +27°C° 0 mm 2 mps 630 mmHg 24%
08:00 +30°C° 0 mm 2 mps 631 mmHg 20%
09:00 +32°C° 0 mm 2 mps 631 mmHg 18%
10:00 +35°C° 0 mm 2 mps 631 mmHg 16%
11:00 +37°C° 0 mm 2 mps 631 mmHg 14%
12:00 +36°C° 0 mm 4 mps 631 mmHg 16%
13:00 +35°C° 0 mm 6 mps 630 mmHg 18%
14:00 +35°C° 0 mm 8 mps 630 mmHg 20%
15:00 +34°C° 0.1 mm 7 mps 629 mmHg 21%
16:00 +33°C° 0.1 mm 6 mps 629 mmHg 22%
17:00 +32°C° 0.1 mm 5 mps 629 mmHg 23%
18:00 +29°C° 0 mm 5 mps 628 mmHg 29%
19:00 +26°C° 0 mm 4 mps 628 mmHg 35%
20:00 +23°C° 0 mm 4 mps 627 mmHg 41%
21:00 +22°C° 0 mm 3 mps 627 mmHg 43%
22:00 +21°C° 0 mm 3 mps 627 mmHg 45%
23:00 +20°C° 0 mm 2 mps 627 mmHg 47%

Day after tomorrow, 7 August, Saturday

Time Temperature Precipitation Wind Pressure Humidity
00:00 +20°C° 0 mm 2 mps 627 mmHg 45%
01:00 +20°C° 0 mm 3 mps 627 mmHg 42%
02:00 +19°C° 0 mm 3 mps 627 mmHg 39%
03:00 +19°C° 0 mm 3 mps 627 mmHg 36%
04:00 +19°C° 0 mm 4 mps 627 mmHg 32%
05:00 +20°C° 0 mm 5 mps 628 mmHg 29%
06:00 +21°C° 0 mm 5 mps 628 mmHg 27%
07:00 +23°C° 0 mm 5 mps 629 mmHg 25%
08:00 +26°C° 0 mm 5 mps 630 mmHg 23%
09:00 +28°C° 0 mm 5 mps 630 mmHg 21%
10:00 +29°C° 0 mm 4 mps 630 mmHg 20%
11:00 +32°C° 0 mm 4 mps 631 mmHg 18%
12:00 +32°C° 0 mm 4 mps 630 mmHg 17%
13:00 +33°C° 0 mm 4 mps 630 mmHg 16%
14:00 +34°C° 0 mm 4 mps 630 mmHg 15%
15:00 +34°C° 0 mm 4 mps 630 mmHg 14%
16:00 +34°C° 0 mm 4 mps 630 mmHg 14%
17:00 +34°C° 0 mm 5 mps 629 mmHg 13%
18:00 +32°C° 0 mm 4 mps 629 mmHg 16%
19:00 +28°C° 0 mm 4 mps 629 mmHg 19%
20:00 +26°C° 0 mm 4 mps 628 mmHg 22%
21:00 +24°C° 0 mm 3 mps 628 mmHg 24%
22:00 +22°C° 0 mm 3 mps 628 mmHg 25%
23:00 +21°C° 0 mm 3 mps 628 mmHg 27%

8 August, Sunday

Time Temperature Precipitation Wind Pressure Humidity
00:00 +21°C° 0 mm 3 mps 628 mmHg 27%
01:00 +21°C° 0 mm 3 mps 628 mmHg 28%
02:00 +21°C° 0 mm 3 mps 628 mmHg 28%
03:00 +20°C° 0 mm 3 mps 628 mmHg 28%
04:00 +20°C° 0 mm 3 mps 628 mmHg 28%
05:00 +19°C° 0 mm 3 mps 628 mmHg 28%
06:00 +22°C° 0 mm 3 mps 629 mmHg 24%
07:00 +26°C° 0 mm 2 mps 629 mmHg 21%
08:00 +29°C° 0 mm 2 mps 630 mmHg 18%
09:00 +31°C° 0 mm 2 mps 630 mmHg 16%
10:00 +34°C° 0 mm 2 mps 631 mmHg 13%
11:00 +36°C° 0 mm 3 mps 631 mmHg 11%
12:00 +37°C° 0 mm 3 mps 631 mmHg 11%
13:00 +38°C° 0 mm 3 mps 630 mmHg 10%
14:00 +38°C° 0 mm 4 mps 630 mmHg 9%
15:00 +38°C° 0 mm 4 mps 630 mmHg 10%
16:00 +38°C° 0 mm 4 mps 629 mmHg 10%
17:00 +38°C° 0 mm 4 mps 629 mmHg 10%
18:00 +35°C° 0 mm 4 mps 628 mmHg 13%
19:00 +32°C° 0 mm 4 mps 628 mmHg 17%
20:00 +27°C° 0 mm 3 mps 628 mmHg 21%
21:00 +27°C° 0 mm 3 mps 628 mmHg 21%
22:00 +26°C° 0 mm 3 mps 628 mmHg 21%
23:00 +25°C° 0 mm 3 mps 628 mmHg 22%

9 August, Monday

Time Temperature Precipitation Wind Pressure Humidity
00:00 +25°C° 0 mm 3 mps 628 mmHg 21%
01:00 +24°C° 0 mm 3 mps 627 mmHg 21%
02:00 +23°C° 0 mm 4 mps 627 mmHg 21%
03:00 +22°C° 0 mm 4 mps 627 mmHg 22%
04:00 +22°C° 0 mm 3 mps 627 mmHg 22%
05:00 +21°C° 0 mm 3 mps 627 mmHg 23%
06:00 +25°C° 0 mm 3 mps 628 mmHg 20%
07:00 +28°C° 0 mm 2 mps 629 mmHg 17%
08:00 +31°C° 0 mm 1 mps 630 mmHg 14%
09:00 +32°C° 0 mm 2 mps 631 mmHg 13%
10:00 +35°C° 0 mm 2 mps 631 mmHg 11%
11:00 +37°C° 0 mm 3 mps 631 mmHg 9%
12:00 +37°C° 0 mm 3 mps 631 mmHg 9%
13:00 +37°C° 0 mm 4 mps 630 mmHg 9%
14:00 +37°C° 0 mm 5 mps 630 mmHg 9%
15:00 +37°C° 0 mm 4 mps 630 mmHg 10%
16:00 +36°C° 0 mm 4 mps 630 mmHg 11%
17:00 +35°C° 0 mm 3 mps 629 mmHg 12%
18:00 +33°C° 0 mm 3 mps 629 mmHg 16%
19:00 +30°C° 0 mm 4 mps 629 mmHg 19%
20:00 +27°C° 0 mm 4 mps 629 mmHg 23%
21:00 +26°C° 0 mm 3 mps 629 mmHg 27%
22:00 +24°C° 0 mm 2 mps 630 mmHg 31%
23:00 +21°C° 0 mm 2 mps 630 mmHg 35%

10 August, Tuesday

Time Temperature Precipitation Wind Pressure Humidity
00:00 +21°C° 0 mm 2 mps 630 mmHg 36%
01:00 +21°C° 0 mm 2 mps 630 mmHg 36%
02:00 +21°C° 0 mm 2 mps 630 mmHg 37%
03:00 +20°C° 0 mm 2 mps 629 mmHg 37%
04:00 +20°C° 0 mm 2 mps 629 mmHg 37%
05:00 +19°C° 0 mm 2 mps 629 mmHg 37%
06:00 +23°C° 0 mm 2 mps 629 mmHg 32%
07:00 +25°C° 0 mm 1 mps 630 mmHg 27%
08:00 +28°C° 0 mm 1 mps 631 mmHg 21%
09:00 +30°C° 0 mm 2 mps 631 mmHg 18%
10:00 +32°C° 0 mm 2 mps 631 mmHg 15%
11:00 +36°C° 0 mm 3 mps 632 mmHg 12%
12:00 +36°C° 0 mm 3 mps 631 mmHg 11%
13:00 +37°C° 0 mm 4 mps 631 mmHg 10%
14:00 +39°C° 0 mm 5 mps 630 mmHg 9%
15:00 +37°C° 0 mm 5 mps 630 mmHg 11%
16:00 +36°C° 0 mm 5 mps 630 mmHg 12%
17:00 +35°C° 0 mm 6 mps 629 mmHg 14%
18:00 +33°C° 0 mm 5 mps 629 mmHg 17%
19:00 +30°C° 0 mm 4 mps 629 mmHg 20%
20:00 +27°C° 0 mm 4 mps 629 mmHg 24%
21:00 +26°C° 0 mm 3 mps 629 mmHg 25%
22:00 +25°C° 0 mm 3 mps 629 mmHg 27%
23:00 +24°C° 0 mm 3 mps 629 mmHg 28%
Show more